Location: Unspecified
(0.0000°N, 1.0000°E)
Time: 10:19:48
(UTC+02:00)

Daily predictions for brighter satellites

Satellite Brightness Start Highest point End
(mag) Time Altitude Azimuth Time Altitude Azimuth Time Altitude Azimuth
CZ-3C R/B 2.6 20:04:54 10° SW 20:08:08 56° SSE 20:23:59 10° ENE
DELTA 2 R/B (1) 3.6 20:07:36 10° SW 20:13:08 77° SE 20:18:40 10° NE
CENTAUR R/B 3.1 20:10:47 10° SSE 20:15:05 24° ESE 20:19:29 10° ENE
Landsat 4 4.2 20:11:56 10° NE 20:15:22 36° ESE 20:18:50 10° S
CSL-04 Debris 4.3 20:12:21 10° S 20:17:45 82° WSW 20:23:10 10° NNW
Meteor 1-27 Rocket 4.1 20:12:25 10° S 20:18:09 74° W 20:23:45 10° N
USA 234 3.3 20:12:09 10° NE 20:18:43 82° SE 20:25:18 10° SSW
CZ-3C R/B 3.9 20:16:15 10° SSW 20:19:30 15° SSE 20:25:56 10° SE
MTI 4.1 20:20:42 10° N 20:23:50 69° WNW 20:27:01 10° SSW
Cosmos 1802 Rocket 4.4 20:18:50 10° SSE 20:24:40 42° E 20:30:33 10° NNE
Cosmos 2221 Rocket 4.5 20:21:17 10° SSW 20:25:45 55° W 20:30:12 10° N
Cosmos 1570 Rocket 4.3 20:23:16 10° S 20:28:21 47° ESE 20:33:26 10° NNE
Lacrosse 4 Rocket 1.8 20:25:02 10° N 20:29:18 49° ENE 20:33:30 10° SSE
Cosmos 1674 Rocket 4.3 20:28:30 10° SSE 20:32:24 31° E 20:36:18 10° NNE
CZ-4 R/B 2.7 20:32:49 10° S 20:36:50 44° WSW 20:40:50 10° NNW
H-2A R/B -0.1 20:35:06 10° WNW 20:37:21 55° SW 20:38:16 20° SE
Haruka 3.7 20:42:53 10° NW 20:47:03 29° NNE 20:49:07 16° E
Cosmos 1184 Rocket 3.1 20:46:47 10° SSW 20:50:06 68° W 20:53:26 10° N
Cosmos 1536 3.9 20:47:59 10° NNE 20:51:20 25° E 20:52:20 22° ESE
H-2A R/B 2.7 20:49:41 10° SSE 20:53:33 73° ENE 20:57:24 10° N
Cosmos 1459 Rocket 4.1 20:47:41 10° S 20:53:46 76° W 20:59:46 10° N
Ariane H10+ 1.9 20:54:48 10° WSW 20:56:00 25° SW 20:56:00 25° SW
Cosmos 1812 3.4 20:53:56 10° SSW 20:57:42 56° W 21:01:28 10° N
Meteor 1-18 Rocket 4.4 20:52:40 10° S 20:58:13 52° E 21:03:50 10° NNE
FREGAT/IRIS 3.7 21:00:03 26° ENE 21:00:03 26° ENE 21:02:07 10° NNE
Cosmos 2208 Rocket 4.1 20:56:03 10° SSW 21:01:19 81° WNW 21:06:30 10° N
Envisat 4.0 21:00:41 23° E 21:01:39 25° ENE 21:05:44 10° NNE
Cosmos 1782 Rocket 4.1 21:01:52 10° NNW 21:06:07 57° W 21:10:22 10° S
Okean 2 Rocket 3.0 21:02:49 10° N 21:07:15 69° E 21:10:30 18° SSE
Cosmos 2369 4.0 21:02:29 10° N 21:07:50 44° ENE 21:10:13 29° SE
Meteor 1-11 Rocket 3.7 21:02:35 10° N 21:08:17 81° E 21:14:08 10° S
USA 215 4.3 21:02:14 10° SSE 21:08:19 41° SW 21:14:24 10° WNW
Cosmos 1271 Rocket 3.4 21:06:30 10° NNW 21:10:15 53° W 21:13:59 10° S
SL-08 R/B 4.5 21:06:25 10° S 21:12:51 84° E 21:19:10 10° N
MOS 1 4.5 21:07:50 10° S 21:13:30 73° WSW 21:19:07 10° NNW
Cosmos 968 Rocket 3.8 21:08:47 10° NNW 21:13:57 66° WSW 21:18:47 12° S
PSLV R/B 4.3 21:12:09 10° NNW 21:14:38 30° NNE 21:14:38 30° NNE
Okean 1 3.2 21:14:30 29° SSE 21:16:24 65° E 21:20:24 10° NNE
FengYun 1-2 T 4.2 21:13:00 13° SSE 21:18:06 86° ENE 21:23:46 10° N
IRAS Rocket 4.1 21:18:01 18° SSE 21:22:13 90° W 21:27:42 10° NNW
Meteor 1-5 Rocket 4.4 21:25:46 10° N 21:31:44 81° W 21:36:00 20° S
Delta R/B 4.2 21:34:36 10° WSW 21:37:49 75° NNW 21:50:30 10° ENE
CZ-2D R/B 4.3 21:39:42 38° N 21:39:42 38° N 21:42:10 10° N
Cosmos 2151 Rocket 3.5 21:34:27 10° N 21:38:37 81° NNE 21:38:37 81° NNE
Cosmos 1725 Rocket 4.4 21:34:57 10° SSW 21:41:00 59° W 21:47:03 10° N
Cosmos 2278 3.7 21:39:58 10° NNW 21:45:39 82° WSW 21:46:50 58° S
Cosmos 1656 3.8 21:41:34 10° NNW 21:47:01 67° WSW 21:48:23 49° SSW
Cosmos 1763 Rocket 4.1 21:41:56 10° SSW 21:47:09 58° WNW 21:52:20 10° N
Cosmos 841 Rocket 3.5 21:53:32 79° WNW 21:53:32 79° WNW 21:58:42 10° N
Cosmos 44 Rocket 4.3 21:50:57 10° N 21:54:26 40° NNE 21:54:26 40° NNE
Meteor 1-19 Rocket 4.3 22:01:06 68° SW 22:01:47 77° W 22:07:40 10° N
NATO 3D Rocket 3.9 21:56:35 10° WSW 22:01:55 76° NNW 22:02:15 73° N
CENTAUR R/B 4.5 22:01:12 10° WSW 22:05:19 22° WNW 22:09:38 10° NNW
Cosmos 1697 Rocket 2.9 22:01:24 10° NNW 22:06:23 66° WNW 22:06:23 66° WNW
ARIANE 5 R/B 3.6 22:06:42 10° W 22:10:52 74° N 22:42:45 10° E
ARIANE 5 R/B 3.6 22:06:43 10° W 22:10:52 74° N 22:42:45 10° E
ARIANE 5 R/B 3.6 22:06:42 10° W 22:10:52 74° N 22:42:46 10° E
Ariane H10 3.7 21:56:51 10° W 22:10:40 63° SW 22:10:40 63° SW
Cosmos 1980 Rocket 3.6 22:15:30 10° N 22:18:20 31° N 22:18:20 31° N
Ariane H10-3 4.4 22:49:49 10° W 22:54:58 25° WSW 22:54:58 25° WSW
